Flag for Norway Weather past 2 weeks in Lillestrøm, Norway

Now
35 °F

Chilly.


Feels Like: 32 °F
Forecast: 26 / 42 °F
Wind: 3 mph from Southeast

Location: Oslo-Blindern

Current Time: Mar 29, 2015 at 1:03:07 AM

Latest Report: Mar 29, 2015 at 12:00 AM


Visibility: N/A

Pressure: 29.44 "Hg

Humidity: 93%

Dew point: 33 °F

Location of LillestrømLocation

Historic Weather in Lillestrøm — Graph

°F

Lillestrøm temperature yesterday

Maximum temperature yesterday: 45 °F (at 12:00 PM)
Minimum temperature yesterday: 30 °F (at 6:00 AM)
Average temperature yesterday: 37 °F

Past Weeks' High & Low Weather Summary

 TemperatureHumidityPressure
High51 °F (Mar 24, 2:00 PM)100% (Mar 20, 2:00 AM)30.89 "Hg (Mar 20, 2:00 AM)
Low25 °F (Mar 14, 7:00 AM)24% (Mar 21, 4:00 PM)29.44 "Hg (Mar 23, 3:00 PM)
Average38 °F73%30.22 "Hg
* Reported Mar 13 11:00 PM — Mar 28 11:00 PM, Lillestrøm, Weather by CustomWeather, © 2015

Note: Actual official high and low records may vary slightly from our data, if they occured in-between our weather recording intervals... More about our weather records

Advertising

Lillestrøm weather history for previous 24 hours

 ConditionsComfort  
Time TempWeatherWind HumidityBarometerVisibility
11:00 PM
Sat, Mar 28
36 °FChilly.3 mph91%29.47 "HgN/A
9:00 PM38 °FChilly.6 mph87%29.57 "HgN/A
8:00 PM37 °FChilly.5 mph91%29.62 "HgN/A
7:00 PM38 °FLight rain. Low clouds.6 mph89%29.66 "Hg19 mi
6:00 PM38 °FChilly.6 mph88%29.69 "HgN/A
5:00 PM39 °FChilly.7 mph80%29.71 "HgN/A
4:00 PM41 °FOvercast.7 mph68%29.75 "Hg43 mi
3:00 PM43 °FQuite cool.6 mph58%29.77 "HgN/A
2:00 PM44 °FQuite cool.5 mph60%29.79 "HgN/A
1:00 PM45 °FPassing clouds.2 mph58%29.83 "Hg43 mi
12:00 PM45 °FCool.1 mph54%29.85 "HgN/A
11:00 AM40 °FChilly.1 mph65%29.88 "HgN/A
10:00 AM36 °FFog.1 mph77%29.90 "Hg2 mi
9:00 AM32 °FChilly.1 mph97%29.91 "HgN/A
8:00 AM31 °FChilly.1 mph99%29.92 "HgN/A
7:00 AM31 °FFog.No wind100%29.91 "Hg0 mi
6:00 AM30 °FChilly.1 mph99%29.90 "HgN/A
5:00 AM31 °FChilly.1 mph98%29.90 "HgN/A
3:00 AM32 °FChilly.2 mph99%29.90 "HgN/A
2:00 AM33 °FChilly.2 mph98%29.90 "HgN/A
1:00 AM33 °FFog.1 mph97%29.89 "Hg2 mi
Weather by CustomWeather, © 2015

See weather overviewHow to use our weather pages